Regional Weather Roundup
Issued by NWS

Home | Current Version | Previous Version | Text Only | Print | Product List | Glossary On
Versions: 1 2 3 4 5 6 7 8 9 10 11 12 13 14 15 16 17 18 19 20 21 22 23 24 25 26 27
000
ASUS45 KSLC 241310
RWRUT

UTAH REGIONAL WEATHER ROUNDUP
NATIONAL WEATHER SERVICE SALT LAKE CITY UT
600 AM MST FRI NOV 24 2017

UTZ001>011-023>025-241400-

NORTHERN UTAH

CITY           SKY/WX    TMP DP  RH WIND       PRES   REMARKS
BRIGHAM CITY   CLEAR     41  37  87 CALM      29.96F
HILL AFB       CLEAR     45  35  66 S6        29.96F
LOGAN          PTCLDY    44  37  76 N6        29.95S
OGDEN          CLEAR     46  36  68 S8        29.95S
SALT LAKE CITY PTCLDY    46  43  89 CALM      29.96S
TOOELE VALLEY  PTCLDY    37  36  93 SW5       29.98S FOG     WCI  34
WENDOVER       CLEAR     33  29  85 CALM      29.97F
HEBER CITY       N/A     41  34  75 N3        29.99S
WEST JORDAN    PTCLDY    48  38  68 NW5       29.98R

$$

UTZ011>015-024>027-241400-

CENTRAL/NORTHEAST UTAH

CITY           SKY/WX    TMP DP  RH WIND       PRES   REMARKS
PROVO AIRPORT  MOCLDY    46  39  76 CALM      29.98F
MOAB/CANYONLAN PTCLDY    37  28  70 CALM      30.06F
DELTA          MOCLDY    45  32  61 CALM      30.00F
PRICE          MOCLDY    38  32  79 CALM      30.07F
RICHFIELD      PTCLDY    39  32  75 CALM      30.05F
ROOSEVELT      CLOUDY    28  25  86 W5        30.04S WCI  23
VERNAL         CLOUDY    31  27  85 W6        30.01F WCI  25

$$

UTZ013>016-019>022-027-241400-

SOUTHERN UTAH

CITY           SKY/WX    TMP DP  RH WIND       PRES   REMARKS
BRYCE CANYON   MOCLDY    23  16  74 W7        30.19F WCI  15
CEDAR CITY     MOCLDY    42  26  53 SW5       30.08S
MILFORD        MOCLDY    50  28  42 SW16      30.04S
ST GEORGE      PTSUNNY   42  29  59 CALM      30.06S
HANKSVILLE     MOCLDY    30  21  69 CALM      30.09S
KANAB          CLEAR     30  23  74 NE6       30.15R WCI  24
BLANDING         N/A     34  28  79 CALM      30.19F

$$

REGIONAL REPORTS     COLORADO/ARIZONA

CITY           SKY/WX    TMP DP  RH WIND       PRES   REMARKS
CRAIG, CO      CLOUDY    34  30  85 CALM      30.04F
GRAND JUNCTION CLOUDY    40  33  76 CALM      30.07S
RIFLE, CO      CLOUDY    36  33  89 SW5       30.10S WCI  32
MONTROSE, CO   CLOUDY    33  27  78 SE8       30.12F WCI  26
CORTEZ, CO     CLOUDY    25  22  88 NE6       30.15S WCI  18
COLORADO CITY    N/A     32  27  80 E5        30.13R WCI  27
PAGE, AZ       MOCLDY    45  31  58 NW3       30.09S
GRAND CANYON   MOCLDY    24  13  62 CALM      30.18F
KINGMAN, AZ    CLEAR     46  28  49 S3        30.02S
FLAGSTAFF, AZ  PTCLDY    28  21  75 CALM      30.21S

$$

REGIONAL REPORTS    NEVADA/IDAHO/WYOMING

CITY           SKY/WX    TMP DP  RH WIND       PRES   REMARKS
LAS VEGAS, NV  PTCLDY    56  38  50 W6        29.97R
ELY, NY        PTCLDY    34  23  64 S8        30.11S WCI  27
ELKO, NV       MOCLDY    38  33  82 E6        30.05R WCI  33
POCATELLO, ID  PTCLDY    48  40  73 SW15      29.94S
BURLEY, ID     MOCLDY    48  42  80 W9        29.96R
FORT BRIDGER,  PTSUNNY   42  31  65 SW8       30.04S
EVANSTON, WY   CLEAR     44  31  60 W21       30.01S
ROCK SPRINGS,  CLEAR     41  29  62 S8        29.99S
KEMMERER, WY   CLOUDY    36  30  80 SW6       30.00F WCI  31

$$




USA.gov is the U.S. government's official web portal to all federal, state and local government web resources and services.